Tracking 19212 objects as of 17-Jul-2018
HD Live streaming from Space Station
objects crossing your sky now

FLOCK 2K 05

Track FLOCK 2K 05 now!
10-day predictions
FLOCK 2K 05 is classified as:


NORAD ID: 42864
Int'l Code: 2017-042AR
Perigee: 454.4 km
Apogee: 469.4 km
Inclination: 97.0 °
Period: 93.7 minutes
Semi major axis: 6832 km
RCS: Unknown
Launch date: July 14, 2017
Source: United States (US)
Launch site: TYURATAM MISSILE AND SPACE COMPLEX (TTMTR)
aabbcc
Your satellite tracking list
Your tracking list is empty




NASA's NSSDC Master Catalog

Two Line Element Set (TLE):
1 42864U 17042AR  18197.65661292  .00004419  00000-0  12371-3 0  9996
2 42864  96.9771  92.7747 0010967  17.7185 342.4441 15.37068071 56161
Source of the keplerian elements: AFSPC